TimeEST,TemperatureF,Dew PointF,Humidity,Sea Level PressureIn,VisibilityMPH,Wind Direction,Wind SpeedMPH,Gust SpeedMPH,PrecipitationIn,Events,Conditions,WindDirDegrees,DateUTC
12:58 AM,6.1,0.5,78,30.00,10.0,NNE,2.3,-,N/A,,Mostly Cloudy,30,2014-01-25 05:58:00
1:58 AM,7.3,3.0,82,29.97,10.0,NNE,1.2,-,N/A,,Mostly Cloudy,30,2014-01-25 06:58:00
2:58 AM,9.9,2.1,71,29.93,10.0,Calm,Calm,-,N/A,,Scattered Clouds,0,2014-01-25 07:58:00
3:58 AM,9.9,5.0,81,29.88,10.0,NE,2.3,-,N/A,,Mostly Cloudy,40,2014-01-25 08:58:00
4:58 AM,12.2,5.4,74,29.84,10.0,NNE,2.3,-,N/A,,Clear,30,2014-01-25 09:58:00
5:58 AM,14.2,5.0,67,29.80,10.0,Calm,Calm,-,N/A,,Mostly Cloudy,0,2014-01-25 10:58:00
6:58 AM,16.2,7.5,69,29.78,10.0,Calm,Calm,-,N/A,,Partly Cloudy,0,2014-01-25 11:58:00
7:58 AM,16.7,7.3,67,29.75,10.0,South,2.3,-,N/A,,Clear,180,2014-01-25 12:58:00
8:58 AM,18.7,4.5,54,29.72,10.0,South,4.6,-,N/A,,Scattered Clouds,170,2014-01-25 13:58:00
9:58 AM,19.4,4.5,52,29.68,10.0,SSE,5.8,-,N/A,,Mostly Cloudy,160,2014-01-25 14:58:00
10:58 AM,20.7,7.2,56,29.65,10.0,South,9.2,-,N/A,,Partly Cloudy,180,2014-01-25 15:58:00
11:58 AM,21.9,10.9,63,29.60,10.0,SSW,12.7,-,N/A,,Scattered Clouds,200,2014-01-25 16:58:00
12:58 PM,22.3,10.8,61,29.54,10.0,South,8.1,-,N/A,,Mostly Cloudy,190,2014-01-25 17:58:00
1:58 PM,22.8,11.5,62,29.49,10.0,SSE,9.2,-,N/A,,Mostly Cloudy,160,2014-01-25 18:58:00
2:58 PM,23.7,12.0,61,29.47,10.0,SSE,10.4,-,N/A,,Overcast,160,2014-01-25 19:58:00
3:58 PM,22.6,18.1,83,29.45,10.0,South,8.1,-,N/A,,Mostly Cloudy,170,2014-01-25 20:58:00
4:44 PM,23.0,19.4,86,29.43,10.0,SSE,5.8,-,N/A,,Overcast,160,2014-01-25 21:44:00
4:58 PM,22.5,18.3,84,29.47,10.0,South,4.6,-,N/A,,Overcast,170,2014-01-25 21:58:00
5:04 PM,23.0,17.6,80,29.44,10.0,South,3.5,-,N/A,,Overcast,180,2014-01-25 22:04:00
5:31 PM,23.0,17.6,80,29.44,10.0,South,4.6,-,N/A,Snow,Light Snow,170,2014-01-25 22:31:00
5:58 PM,22.5,18.7,85,29.47,10.0,SSE,4.6,-,0.00,Snow,Light Snow,160,2014-01-25 22:58:00
6:22 PM,23.0,19.4,86,29.45,10.0,South,4.6,-,N/A,Snow,Light Snow,190,2014-01-25 23:22:00
6:58 PM,22.6,21.9,97,29.48,7.0,SW,4.6,-,0.00,Snow,Light Snow,220,2014-01-25 23:58:00
7:16 PM,23.0,23.0,100,29.46,9.0,WSW,3.5,-,N/A,Snow,Light Snow,250,2014-01-26 00:16:00
7:27 PM,23.0,21.2,93,29.46,10.0,WSW,4.6,-,N/A,,Overcast,240,2014-01-26 00:27:00
7:58 PM,21.4,21.2,99,29.50,10.0,Calm,Calm,-,0.00,,Overcast,0,2014-01-26 00:58:00
8:58 PM,18.7,18.7,100,29.49,10.0,Calm,Calm,-,N/A,,Scattered Clouds,0,2014-01-26 01:58:00
9:45 PM,17.6,17.6,100,29.48,10.0,Calm,Calm,-,N/A,Snow,Light Snow,0,2014-01-26 02:45:00
9:58 PM,17.6,17.6,100,29.51,10.0,Calm,Calm,-,0.00,Snow,Light Snow,0,2014-01-26 02:58:00
9:59 PM,17.6,17.6,100,29.48,10.0,Calm,Calm,-,N/A,,Mostly Cloudy,0,2014-01-26 02:59:00
10:06 PM,19.4,19.4,100,29.49,10.0,Calm,Calm,-,N/A,Snow,Light Snow,0,2014-01-26 03:06:00
10:12 PM,19.4,19.4,100,29.49,8.0,WSW,2.3,-,N/A,Snow,Light Snow,240,2014-01-26 03:12:00
10:20 PM,21.2,21.2,100,29.51,2.0,West,3.5,-,N/A,Snow,Light Snow,270,2014-01-26 03:20:00
10:28 PM,21.2,21.2,100,29.51,3.0,SW,8.1,-,N/A,Snow,Light Snow,230,2014-01-26 03:28:00
10:34 PM,21.2,21.2,100,29.51,6.0,SW,8.1,-,N/A,Snow,Light Snow,230,2014-01-26 03:34:00
10:38 PM,23.0,23.0,100,29.51,5.0,West,5.8,-,N/A,Snow,Light Snow,270,2014-01-26 03:38:00
10:50 PM,23.0,23.0,100,29.52,10.0,West,6.9,-,N/A,Snow,Light Snow,280,2014-01-26 03:50:00
10:51 PM,23.0,23.0,100,29.52,10.0,Variable,5.8,-,N/A,,Mostly Cloudy,0,2014-01-26 03:51:00
10:58 PM,23.9,23.7,99,29.56,10.0,West,16.1,25.3,0.00,,Mostly Cloudy,270,2014-01-26 03:58:00
10:59 PM,24.8,23.0,93,29.53,9.0,WNW,15.0,25.3,N/A,Snow,Light Snow,290,2014-01-26 03:59:00
11:03 PM,24.8,23.0,93,29.53,8.0,West,15.0,25.3,N/A,Snow,Light Snow,280,2014-01-26 04:03:00
11:06 PM,24.8,21.2,86,29.53,8.0,WNW,20.7,31.1,N/A,,Mostly Cloudy,300,2014-01-26 04:06:00
11:07 PM,24.8,21.2,86,29.53,8.0,WNW,20.7,31.1,N/A,,Mostly Cloudy,300,2014-01-26 04:07:00
11:17 PM,24.8,14.0,64,29.55,6.0,West,24.2,33.4,N/A,Snow,Blowing Snow,280,2014-01-26 04:17:00
11:36 PM,24.8,8.6,50,29.57,10.0,WNW,15.0,29.9,N/A,,Clear,290,2014-01-26 04:36:00
11:58 PM,23.5,7.0,49,29.61,10.0,West,15.0,26.5,0.00,,Partly Cloudy,280,2014-01-26 04:58:00